SCP
-0 -0 -0 -0 -0 -0 -0 -0 -0 -0 0 0 0 0 0 0 0 0 0 0 0 0 0 0 0 0 0 0 0 0 0 0 0 0 0 0 0 0 0 0 0 0 0
-0 -0 -0 -0 -0 -0 -0 -0 -0 0 0 0 0 0 0 0 0 0 0 0 0 0 0 0 0 0 0 0 0 0 0 0 0 0 0 0 0 0 0 0 0 0 0
-0 -0 -0 -0 -0 -0 -0 -0 0 0 0 0 0 0 0 0 0 0 0 0 0 0 0 0 0 0 0 0 0 0 0 0 0 0 0 0 0 0 0 0 0 0 0
-0 0 0 -0 -0 -0 -0 0 0 0 0 0 0 0 0 0 0 0 0 0 0 0 0 0 0 0 0 0 0 0 0 0 0 0 0 0 0 0 0 0 0 0 0
0 0 0 -0 -0 -0 -0 0 0 0 0 0 0 0 0 0 0 0 0 0 0 0 0 0 0 0 0 0 0 0 0 0 0 0 0 0 0 0 0 0 0 0 0
0 0 0 -0 -0 -0 0 0 0 0 0 0 0 0 0 0 0 0 0 0 0 0 0 0 0 0 0 0 0 0 0 0 0 0 0 0 0 0 0 0 0 0 0
0 0 0 -0 0 0 0 0 0 0 0 0 0 0 0 0 0 0 0 0 0 0 0 0 0 0 0 0 0 0 0 0 0 0 0 0 0 0 0 0 0 0 0
0 0 0 0 0 0 0 0 0 0 0 0 0 0 0 0 0 0 0 0 0 0 0 0 0 0 0 0 0 0 0 0 0 0 0 0 0 0 0 0 0 0 0
0 0 0 0 0 0 0 0 0 0 0 0 0 0 0 0 0 0 0 0 0 0 0 0 0 0 0 0 0 0 0 0 0 0 0 0 0 0 0 0 0 0 0
0 0 0 0 0 0 0 0 0 0 0 0 0 0 0 0 0 0 0 0 0 0 0 0 0 0 0 0 0 0 0 0 0 0 0 0 0 0 0 1 1 0 0
0 0 -0 -0 0 0 0 0 0 0 0 0 0 0 0 0 0 0 0 0 0 0 0 0 0 0 0 0 0 0 0 0 0 0 0 0 0 0 0 0 0 1 0
0 -0 -0 -0 -0 0 0 0 0 0 0 0 0 0 0 0 0 0 0 0 0 0 0 0 0 0 0 0 0 0 0 0 0 0 0 0 0 0 0 0 0 0 0
-0 -0 -0 -0 -0 0 0 0 0 0 0 0 0 0 0 0 0 0 0 0 0 0 0 0 0 0 0 0 0 0 0 0 -0 0 0 0 0 0 0 0 0 0 0
0 -0 -0 -0 -0 0 0 0 0 0 0 0 0 0 0 0 0 0 0 0 0 0 0 0 0 0 0 0 0 0 0 0 0 0 0 0 0 0 0 0 0 0 0
0 0 -0 -0 -0 0 0 0 0 0 0 0 0 0 0 0 0 0 0 0 0 0 0 0 0 0 0 0 0 0 0 0 0 0 0 0 0 0 0 0 0 0 0
0 0 0 0 -0 -0 0 0 0 0 0 0 0 0 0 0 0 0 0 0 0 0 0 0 0 0 0 0 0 0 0 0 0 0 0 0 0 0 0 0 0 1 0
0 0 0 0 0 0 0 0 0 0 0 0 0 0 0 0 0 0 0 0 0 0 0 0 0 0 0 0 0 -0 0 0 0 0 0 0 0 0 0 0 0 0 0
0 0 0 0 0 0 0 0 0 0 0 0 0 0 0 0 0 0 0 0 0 0 0 0 0 0 0 0 0 0 0 0 0 0 0 0 0 0 0 0 0 0 0
0 0 0 0 0 0 0 0 0 0 0 0 0 0 0 0 0 0 0 0 0 0 0 0 0 0 0 0 0 0 0 0 0 0 0 0 0 0 0 0 0 0 0
0 0 0 0 0 0 0 0 0 0 0 0 0 0 0 0 0 0 0 0 0 0 -0 0 0 0 0 0 0 0 0 0 0 0 0 0 0 0 0 0 0 0 0
0 0 0 0 0 0 0 0 0 0 0 0 0 0 0 0 0 0 0 0 0 0 0 0 0 0 0 0 0 0 0 0 0 0 0 0 0 0 0 0 0 0 0
0 0 0 0 0 0 0 0 0 0 0 0 0 0 0 0 0 0 0 0 0 0 -0 0 0 0 0 -0 0 0 0 0 0 0 0 0 0 0 0 0 0 0 0
0 0 0 0 0 0 0 0 0 0 0 0 0 0 0 0 0 0 0 0 0 0 -0 0 0 0 0 0 -0 0 0 0 0 0 0 0 0 0 0 0 0 0 0
0 0 0 0 0 0 0 0 0 0 0 0 0 0 0 0 0 0 0 0 0 0 -0 -0 0 0 0 0 0 0 0 0 0 0 0 0 0 0 0 0 0 0 0
0 0 0 0 0 0 0 0 0 0 0 0 0 0 0 0 0 0 0 0 0 0 0 -0 -0 -0 0 0 0 0 0 0 -0 0 0 0 0 0 0 0 0 0 0
0 0 0 0 0 0 0 0 0 0 0 0 0 0 0 0 0 0 0 0 0 0 0 0 -0 -0 0 0 0 0 0 0 0 0 0 0 0 0 0 0 0 0 0
Wind_Speed_500mb
26 24 24 17 17 17 16 11 4 2 6 12 14 12 9 8 6 6 7 10 12 16 19 21 23 26 26 27 27 27 22 19 20 21 20 20 22 19 18 20 17 16 22
18 24 23 17 15 16 10 8 2 4 9 12 11 9 9 9 8 7 7 8 9 12 15 16 19 21 23 26 29 32 32 27 20 22 24 22 20 20 20 23 20 18 21
24 28 22 20 19 16 12 7 3 5 10 10 9 9 9 9 9 9 9 10 11 12 15 17 19 21 21 22 23 26 28 32 32 24 25 26 26 24 23 26 26 22 21
23 27 27 23 18 17 12 7 3 6 9 9 11 11 11 11 12 12 12 12 13 14 16 19 21 23 23 23 23 24 25 27 32 36 29 29 30 28 26 29 31 27 24
26 22 24 22 20 17 12 6 2 7 8 10 11 12 13 14 14 15 17 17 18 18 19 20 21 23 23 23 24 25 27 29 31 34 40 36 35 33 29 31 34 33 29
23 22 26 23 21 16 11 5 3 6 8 10 11 12 14 16 17 18 20 21 20 19 20 21 22 22 21 21 23 26 29 30 29 31 36 43 41 39 35 32 34 38 33
22 20 23 19 21 16 11 5 2 5 7 9 11 13 15 17 20 21 21 20 20 20 21 23 24 26 27 27 27 26 26 27 27 29 34 40 47 43 41 32 32 41 40
18 19 21 19 20 16 10 4 1 3 5 7 10 13 16 19 20 19 18 18 18 20 22 26 26 27 27 26 21 21 25 25 23 24 28 34 45 47 45 37 33 41 45
19 17 18 20 20 16 10 5 1 2 4 7 10 13 17 18 17 16 17 18 21 22 20 19 22 25 23 22 23 25 18 10 10 13 21 27 36 44 42 36 34 38 46
19 14 15 19 20 16 12 7 4 0 3 7 11 14 17 17 17 16 17 19 20 23 26 27 27 31 27 24 21 20 19 16 15 13 12 15 35 44 50 45 35 36 44
23 15 17 20 19 17 13 10 6 2 2 6 11 15 18 15 15 16 17 19 21 24 26 27 24 29 29 28 26 20 19 16 15 12 16 18 27 34 37 48 38 39 38
27 22 20 19 20 18 14 11 7 4 2 5 11 15 15 14 14 16 18 20 22 20 24 29 29 31 31 31 30 24 17 15 14 10 8 18 20 28 36 46 51 38 36
28 26 25 22 21 19 14 11 9 6 3 6 11 14 13 11 13 14 16 19 17 20 22 25 28 32 36 32 31 24 18 12 8 7 9 10 21 25 31 40 59 35 31
38 30 28 24 24 22 18 13 11 8 2 5 10 12 11 10 12 14 18 20 14 22 24 29 32 31 31 29 26 26 14 11 8 8 12 3 10 21 24 39 54 37 30
43 37 33 28 26 22 19 15 12 8 3 4 8 10 9 10 11 15 19 18 18 21 24 31 32 32 35 33 31 27 26 17 8 11 3 9 7 14 12 29 51 37 24
47 45 40 36 31 28 25 18 13 10 5 2 6 7 7 8 10 15 17 17 19 20 23 29 29 32 40 43 46 40 31 26 19 15 9 8 9 9 15 31 49 34 26
51 49 48 42 39 34 29 22 16 13 8 3 4 5 4 6 8 14 14 14 16 19 20 25 28 33 34 52 52 42 40 36 21 19 16 17 17 19 27 44 32 34 59
48 53 49 47 43 38 34 26 19 16 11 5 2 2 2 4 6 14 12 13 18 17 20 21 28 31 41 53 50 47 41 32 27 29 32 32 33 32 33 42 37 36 52
47 50 53 49 47 43 37 30 25 19 15 9 3 1 1 2 5 12 12 14 16 14 19 19 26 25 34 47 47 35 37 35 32 38 46 40 43 41 42 41 31 27 56
49 47 48 50 49 48 41 36 30 25 20 13 7 6 4 2 2 10 11 11 12 19 17 19 26 21 24 39 41 38 35 33 32 40 36 35 41 38 39 40 34 26 40
61 57 56 56 56 55 51 43 35 28 21 16 11 10 9 7 3 6 9 9 10 17 19 23 24 23 18 29 35 37 34 38 35 36 36 32 42 45 42 42 49 55 57
67 66 62 60 60 58 49 39 33 27 24 20 15 14 13 11 7 4 7 7 7 14 20 23 24 25 23 25 36 32 33 43 45 33 35 37 41 45 58 63 76 76 97
75 73 67 65 62 56 49 46 40 37 31 27 21 19 17 15 11 5 5 7 6 11 17 23 21 23 25 20 25 23 15 16 40 44 50 62 44 37 51 74 77 67 57
73 71 66 64 61 55 54 53 46 35 30 25 20 21 19 18 14 8 7 8 7 10 15 22 20 21 22 23 26 26 33 36 25 33 69 72 75 82 69 63 61 69 72
71 72 67 63 60 56 58 54 45 36 29 27 25 25 23 22 18 11 7 6 9 11 15 18 20 19 20 22 22 35 41 52 50 51 47 63 68 66 68 81 80 76 66
73 73 68 67 63 58 59 56 49 42 38 33 30 30 28 26 23 15 9 7 12 12 14 16 22 21 19 19 18 18 33 36 39 54 62 70 71 78 79 75 66 61 57
Wind_Direction_500mb
179 193 188 189 205 219 214 207 209 296 333 330 327 325 332 333 332 310 289 280 280 276 273 269 268 268 268 264 258 258 259 247 232 233 234 235 239 235 242 212 215 200 181
178 181 180 187 203 223 193 190 205 315 327 329 335 352 359 358 355 347 329 317 305 297 296 291 284 280 274 270 265 261 258 249 240 231 230 233 234 230 230 203 210 193 179
180 170 174 194 204 212 187 190 232 304 329 342 3 13 14 5 357 353 338 324 313 309 305 303 298 291 285 276 269 264 259 251 244 241 232 227 224 226 219 207 207 198 180
183 169 170 182 188 188 186 202 249 325 346 4 15 19 17 9 4 357 345 337 329 322 315 307 303 300 297 292 286 277 267 255 248 238 234 230 228 220 218 208 210 205 194
176 183 190 176 188 177 191 204 286 344 7 16 18 16 12 6 0 355 347 343 339 332 324 314 311 307 305 299 288 276 266 255 246 239 231 226 225 224 220 215 213 210 199
186 191 204 178 182 178 189 206 322 3 14 17 15 11 5 359 354 353 349 349 346 339 333 327 325 316 306 291 284 279 275 270 261 247 236 227 222 221 220 224 216 211 203
194 211 213 173 172 178 189 200 335 21 20 16 7 3 360 358 357 356 356 354 349 343 337 328 320 312 308 304 297 293 288 280 269 253 237 226 221 217 217 217 217 214 204
224 230 205 177 171 181 188 203 7 30 22 8 359 358 4 1 357 358 359 355 347 340 339 343 333 329 329 318 317 312 305 292 283 267 254 235 221 214 214 213 217 216 206
223 222 201 181 176 183 188 204 187 34 6 355 353 4 3 3 358 4 2 354 351 357 358 338 338 332 331 327 325 318 301 306 295 250 237 235 228 222 213 211 211 213 210
221 225 214 180 180 186 194 203 200 187 343 349 353 5 4 5 8 8 0 355 1 360 5 0 358 8 346 334 322 313 322 305 297 287 258 222 204 210 216 214 216 215 208
216 222 203 188 186 195 202 206 210 230 334 343 356 8 8 8 14 3 357 0 12 16 12 7 20 17 13 3 350 330 317 309 292 269 243 218 209 204 207 212 220 217 204
216 212 197 193 193 197 198 199 206 225 287 337 5 11 8 12 12 2 2 8 19 26 24 22 19 14 5 5 2 348 340 317 319 306 283 223 210 213 207 202 210 211 205
219 215 204 196 196 197 195 204 214 227 264 356 10 11 11 14 11 1 7 10 23 27 28 23 21 13 9 4 5 357 359 355 349 314 282 250 217 216 221 208 201 201 209
221 221 214 209 205 202 200 209 218 226 248 3 10 8 15 13 7 6 9 23 39 41 31 27 23 17 8 1 11 22 13 355 342 347 242 237 194 207 220 209 202 189 211
225 224 220 219 220 216 213 218 220 229 252 357 4 6 16 13 2 18 18 36 46 49 43 39 33 20 19 28 32 19 13 3 13 348 325 179 212 206 208 193 192 181 196
224 224 220 220 221 220 220 220 223 233 237 319 356 4 23 7 7 25 24 45 58 59 50 41 33 27 25 30 34 22 22 11 20 25 85 162 179 178 171 168 172 175 166
226 221 217 217 217 217 218 220 221 230 235 263 343 0 27 15 13 29 33 45 62 65 68 58 45 25 28 47 41 26 34 35 38 54 49 94 119 133 143 154 155 165 155
223 217 214 216 217 215 217 217 215 221 226 221 302 359 28 20 21 35 39 37 58 58 76 63 52 46 49 49 48 35 30 55 56 72 78 89 101 115 137 157 139 150 173
224 216 212 214 216 215 214 212 212 214 217 204 196 167 136 49 34 42 49 43 62 56 69 71 59 49 63 60 51 34 50 52 68 86 92 93 94 106 125 140 140 150 155
225 222 217 215 215 214 213 209 210 208 213 197 184 173 167 175 65 49 52 50 64 63 80 78 69 56 62 71 56 52 62 71 70 80 80 90 100 103 124 145 156 148 152
220 218 216 215 214 214 210 208 209 210 207 199 187 180 170 182 152 69 57 60 54 75 93 89 75 71 74 87 75 71 76 81 93 86 93 86 103 97 102 120 140 128 134
220 215 215 216 216 215 216 214 214 208 203 202 195 185 175 184 175 111 66 84 72 84 96 100 82 76 71 99 96 91 71 69 76 94 99 106 104 114 88 110 118 124 136
215 214 214 215 214 215 212 209 205 206 206 206 197 187 181 185 182 149 79 123 102 87 101 110 92 90 80 85 98 108 94 86 78 89 112 111 116 121 120 119 116 118 123
215 214 216 214 213 212 210 210 214 217 213 203 194 186 185 184 185 161 111 131 135 110 110 119 108 99 93 88 97 111 117 113 101 83 103 111 117 116 123 133 122 123 128
216 214 214 212 211 210 210 212 212 209 207 205 197 187 185 186 186 174 141 139 152 131 126 128 129 119 110 104 101 126 119 120 112 111 90 92 112 113 113 128 131 128 129
215 214 212 210 210 210 211 210 207 206 207 205 199 190 185 184 186 179 159 149 159 149 143 143 148 139 120 118 112 133 144 134 135 131 116 106 104 108 119 123 123 124 126
Wind_Speed_850mb
26 24 24 17 17 17 16 11 4 2 6 12 14 12 9 8 6 6 7 10 12 16 19 21 23 26 26 27 27 27 22 19 20 21 20 20 22 19 18 20 17 16 22
18 24 23 17 15 16 10 8 2 4 9 12 11 9 9 9 8 7 7 8 9 12 15 16 19 21 23 26 29 32 32 27 20 22 24 22 20 20 20 23 20 18 21
24 28 22 20 19 16 12 7 3 5 10 10 9 9 9 9 9 9 9 10 11 12 15 17 19 21 21 22 23 26 28 32 32 24 25 26 26 24 23 26 26 22 21
23 27 27 23 18 17 12 7 3 6 9 9 11 11 11 11 12 12 12 12 13 14 16 19 21 23 23 23 23 24 25 27 32 36 29 29 30 28 26 29 31 27 24
26 22 24 22 20 17 12 6 2 7 8 10 11 12 13 14 14 15 17 17 18 18 19 20 21 23 23 23 24 25 27 29 31 34 40 36 35 33 29 31 34 33 29
23 22 26 23 21 16 11 5 3 6 8 10 11 12 14 16 17 18 20 21 20 19 20 21 22 22 21 21 23 26 29 30 29 31 36 43 41 39 35 32 34 38 33
22 20 23 19 21 16 11 5 2 5 7 9 11 13 15 17 20 21 21 20 20 20 21 23 24 26 27 27 27 26 26 27 27 29 34 40 47 43 41 32 32 41 40
18 19 21 19 20 16 10 4 1 3 5 7 10 13 16 19 20 19 18 18 18 20 22 26 26 27 27 26 21 21 25 25 23 24 28 34 45 47 45 37 33 41 45
19 17 18 20 20 16 10 5 1 2 4 7 10 13 17 18 17 16 17 18 21 22 20 19 22 25 23 22 23 25 18 10 10 13 21 27 36 44 42 36 34 38 46
19 14 15 19 20 16 12 7 4 0 3 7 11 14 17 17 17 16 17 19 20 23 26 27 27 31 27 24 21 20 19 16 15 13 12 15 35 44 50 45 35 36 44
23 15 17 20 19 17 13 10 6 2 2 6 11 15 18 15 15 16 17 19 21 24 26 27 24 29 29 28 26 20 19 16 15 12 16 18 27 34 37 48 38 39 38
27 22 20 19 20 18 14 11 7 4 2 5 11 15 15 14 14 16 18 20 22 20 24 29 29 31 31 31 30 24 17 15 14 10 8 18 20 28 36 46 51 38 36
28 26 25 22 21 19 14 11 9 6 3 6 11 14 13 11 13 14 16 19 17 20 22 25 28 32 36 32 31 24 18 12 8 7 9 10 21 25 31 40 59 35 31
38 30 28 24 24 22 18 13 11 8 2 5 10 12 11 10 12 14 18 20 14 22 24 29 32 31 31 29 26 26 14 11 8 8 12 3 10 21 24 39 54 37 30
43 37 33 28 26 22 19 15 12 8 3 4 8 10 9 10 11 15 19 18 18 21 24 31 32 32 35 33 31 27 26 17 8 11 3 9 7 14 12 29 51 37 24
47 45 40 36 31 28 25 18 13 10 5 2 6 7 7 8 10 15 17 17 19 20 23 29 29 32 40 43 46 40 31 26 19 15 9 8 9 9 15 31 49 34 26
51 49 48 42 39 34 29 22 16 13 8 3 4 5 4 6 8 14 14 14 16 19 20 25 28 33 34 52 52 42 40 36 21 19 16 17 17 19 27 44 32 34 59
48 53 49 47 43 38 34 26 19 16 11 5 2 2 2 4 6 14 12 13 18 17 20 21 28 31 41 53 50 47 41 32 27 29 32 32 33 32 33 42 37 36 52
47 50 53 49 47 43 37 30 25 19 15 9 3 1 1 2 5 12 12 14 16 14 19 19 26 25 34 47 47 35 37 35 32 38 46 40 43 41 42 41 31 27 56
49 47 48 50 49 48 41 36 30 25 20 13 7 6 4 2 2 10 11 11 12 19 17 19 26 21 24 39 41 38 35 33 32 40 36 35 41 38 39 40 34 26 40
61 57 56 56 56 55 51 43 35 28 21 16 11 10 9 7 3 6 9 9 10 17 19 23 24 23 18 29 35 37 34 38 35 36 36 32 42 45 42 42 49 55 57
67 66 62 60 60 58 49 39 33 27 24 20 15 14 13 11 7 4 7 7 7 14 20 23 24 25 23 25 36 32 33 43 45 33 35 37 41 45 58 63 76 76 97
75 73 67 65 62 56 49 46 40 37 31 27 21 19 17 15 11 5 5 7 6 11 17 23 21 23 25 20 25 23 15 16 40 44 50 62 44 37 51 74 77 67 57
73 71 66 64 61 55 54 53 46 35 30 25 20 21 19 18 14 8 7 8 7 10 15 22 20 21 22 23 26 26 33 36 25 33 69 72 75 82 69 63 61 69 72
71 72 67 63 60 56 58 54 45 36 29 27 25 25 23 22 18 11 7 6 9 11 15 18 20 19 20 22 22 35 41 52 50 51 47 63 68 66 68 81 80 76 66
73 73 68 67 63 58 59 56 49 42 38 33 30 30 28 26 23 15 9 7 12 12 14 16 22 21 19 19 18 18 33 36 39 54 62 70 71 78 79 75 66 61 57
Wind_Direction_850mb
179 193 188 189 205 219 214 207 209 296 333 330 327 325 332 333 332 310 289 280 280 276 273 269 268 268 268 264 258 258 259 247 232 233 234 235 239 235 242 212 215 200 181
178 181 180 187 203 223 193 190 205 315 327 329 335 352 359 358 355 347 329 317 305 297 296 291 284 280 274 270 265 261 258 249 240 231 230 233 234 230 230 203 210 193 179
180 170 174 194 204 212 187 190 232 304 329 342 3 13 14 5 357 353 338 324 313 309 305 303 298 291 285 276 269 264 259 251 244 241 232 227 224 226 219 207 207 198 180
183 169 170 182 188 188 186 202 249 325 346 4 15 19 17 9 4 357 345 337 329 322 315 307 303 300 297 292 286 277 267 255 248 238 234 230 228 220 218 208 210 205 194
176 183 190 176 188 177 191 204 286 344 7 16 18 16 12 6 0 355 347 343 339 332 324 314 311 307 305 299 288 276 266 255 246 239 231 226 225 224 220 215 213 210 199
186 191 204 178 182 178 189 206 322 3 14 17 15 11 5 359 354 353 349 349 346 339 333 327 325 316 306 291 284 279 275 270 261 247 236 227 222 221 220 224 216 211 203
194 211 213 173 172 178 189 200 335 21 20 16 7 3 360 358 357 356 356 354 349 343 337 328 320 312 308 304 297 293 288 280 269 253 237 226 221 217 217 217 217 214 204
224 230 205 177 171 181 188 203 7 30 22 8 359 358 4 1 357 358 359 355 347 340 339 343 333 329 329 318 317 312 305 292 283 267 254 235 221 214 214 213 217 216 206
223 222 201 181 176 183 188 204 187 34 6 355 353 4 3 3 358 4 2 354 351 357 358 338 338 332 331 327 325 318 301 306 295 250 237 235 228 222 213 211 211 213 210
221 225 214 180 180 186 194 203 200 187 343 349 353 5 4 5 8 8 0 355 1 360 5 0 358 8 346 334 322 313 322 305 297 287 258 222 204 210 216 214 216 215 208
216 222 203 188 186 195 202 206 210 230 334 343 356 8 8 8 14 3 357 0 12 16 12 7 20 17 13 3 350 330 317 309 292 269 243 218 209 204 207 212 220 217 204
216 212 197 193 193 197 198 199 206 225 287 337 5 11 8 12 12 2 2 8 19 26 24 22 19 14 5 5 2 348 340 317 319 306 283 223 210 213 207 202 210 211 205
219 215 204 196 196 197 195 204 214 227 264 356 10 11 11 14 11 1 7 10 23 27 28 23 21 13 9 4 5 357 359 355 349 314 282 250 217 216 221 208 201 201 209
221 221 214 209 205 202 200 209 218 226 248 3 10 8 15 13 7 6 9 23 39 41 31 27 23 17 8 1 11 22 13 355 342 347 242 237 194 207 220 209 202 189 211
225 224 220 219 220 216 213 218 220 229 252 357 4 6 16 13 2 18 18 36 46 49 43 39 33 20 19 28 32 19 13 3 13 348 325 179 212 206 208 193 192 181 196
224 224 220 220 221 220 220 220 223 233 237 319 356 4 23 7 7 25 24 45 58 59 50 41 33 27 25 30 34 22 22 11 20 25 85 162 179 178 171 168 172 175 166
226 221 217 217 217 217 218 220 221 230 235 263 343 0 27 15 13 29 33 45 62 65 68 58 45 25 28 47 41 26 34 35 38 54 49 94 119 133 143 154 155 165 155
223 217 214 216 217 215 217 217 215 221 226 221 302 359 28 20 21 35 39 37 58 58 76 63 52 46 49 49 48 35 30 55 56 72 78 89 101 115 137 157 139 150 173
224 216 212 214 216 215 214 212 212 214 217 204 196 167 136 49 34 42 49 43 62 56 69 71 59 49 63 60 51 34 50 52 68 86 92 93 94 106 125 140 140 150 155
225 222 217 215 215 214 213 209 210 208 213 197 184 173 167 175 65 49 52 50 64 63 80 78 69 56 62 71 56 52 62 71 70 80 80 90 100 103 124 145 156 148 152
220 218 216 215 214 214 210 208 209 210 207 199 187 180 170 182 152 69 57 60 54 75 93 89 75 71 74 87 75 71 76 81 93 86 93 86 103 97 102 120 140 128 134
220 215 215 216 216 215 216 214 214 208 203 202 195 185 175 184 175 111 66 84 72 84 96 100 82 76 71 99 96 91 71 69 76 94 99 106 104 114 88 110 118 124 136
215 214 214 215 214 215 212 209 205 206 206 206 197 187 181 185 182 149 79 123 102 87 101 110 92 90 80 85 98 108 94 86 78 89 112 111 116 121 120 119 116 118 123
215 214 216 214 213 212 210 210 214 217 213 203 194 186 185 184 185 161 111 131 135 110 110 119 108 99 93 88 97 111 117 113 101 83 103 111 117 116 123 133 122 123 128
216 214 214 212 211 210 210 212 212 209 207 205 197 187 185 186 186 174 141 139 152 131 126 128 129 119 110 104 101 126 119 120 112 111 90 92 112 113 113 128 131 128 129
215 214 212 210 210 210 211 210 207 206 207 205 199 190 185 184 186 179 159 149 159 149 143 143 148 139 120 118 112 133 144 134 135 131 116 106 104 108 119 123 123 124 126